カタログに戻る

STARLINK-5516

運用中通信VLEO
NORAD 57253·PAYLOAD·🇺🇸 United States

打ち上げ Jul 7, 2023 から Vandenberg Space Force Base

Loading…

次のパス (今後24時間)

TLE

最新Source: CelesTrak SupGP

元期: Sep 14, 2026, 21:45 UTC

1 57253C 23094AM  26257.90673611  .00027744  00000+0  10048-2 0  2570
2 57253  43.0022  31.1764 0001458 276.1696 299.7620 15.27568279    10

AllMySatでSTARLINK-5516をリアルタイム追跡

Download on the App Store